Powrót do katalogu

INTELSAT 33E DEB

LostGEO
NORAD 62002·DEBRIS· XX

Wystrzelony Aug 24, 2016 z Guiana Space Centre

Loading…

TLE

NieaktualneSource: Space-Track

Epoka: Jan 21, 2025, 12:03 UTC

1 62002U 16053U   25021.50220385  .00000080  00000-0  00000-0 0  9998
2 62002   0.2494  97.1529 0026366 220.4475  42.1783  1.00292476   951

Śledź INTELSAT 33E DEB w czasie rzeczywistym z AllMySat

Download on the App Store